Tracking 31027 objects as of 19-Jul-2025
HD Live streaming from Space Station
objects crossing your sky now

ONEWEB-0595

Track ONEWEB-0595 now!
10-day predictions
ONEWEB-0595 is classified as:


NORAD ID: 54661
Int'l Code: 2022-166V
Perigee: 1,183.4 km
Apogee: 1,186.4 km
Inclination: 87.9 °
Period: 108.9 minutes
Semi major axis: 7555 km
RCS: Unknown
Launch date: December 8, 2022
Source: United Kingdom (UK)
Launch site: AIR FORCE EASTERN TEST RANGE (AFETR)
Your satellite tracking list
IRIDIUM 135
Track 1 satellite(s)




NASA's NSSDC Master Catalog

Two Line Element Set (TLE):
1 54661U 22166V   25199.58679616  .00000000  00000-0 -31272-4 0  9993
2 54661  87.9274 310.5230 0001940  94.2817 265.8539 13.21825662127464
Source of the keplerian elements: AFSPC